This is the latest recevied weather packets stored in our database for station/object K8JCL-13. If no packets are shown the sender has not sent any weather packets the latest 1 day(s).
| Time | Temp. | Humidity | Pressure | Rain* | Wind** | Luminosity | Snow |
|---|---|---|---|---|---|---|---|
| 1778044971 | 8.33° C | 99% | 1008.5 hPa | 4.83 mm | 2.24 m/s, 49° | 0 W/m² | - |
| 1778044668 | 8.33° C | 99% | 1008.5 hPa | 6.1 mm | 1.34 m/s, 358° | 0 W/m² | - |
| 1778044364 | 8.33° C | 99% | 1008.5 hPa | 4.32 mm | 1.34 m/s, 304° | 0 W/m² | - |
| 1778044062 | 8.33° C | 99% | 1008.4 hPa | 3.05 mm | 1.34 m/s, 328° | 0 W/m² | - |
| 1778043759 | 8.33° C | 99% | 1008.3 hPa | 3.05 mm | 0.89 m/s, 326° | 0 W/m² | - |
| 1778043455 | 8.33° C | 99% | 1008 hPa | 3.05 mm | 1.79 m/s, 356° | 0 W/m² | - |
| 1778043152 | 8.33° C | 99% | 1008 hPa | 3.56 mm | 1.79 m/s, 347° | 0 W/m² | - |
| 1778042849 | 8.33° C | 99% | 1008.1 hPa | 4.83 mm | 0.89 m/s, 32° | 0 W/m² | - |
| 1778042547 | 8.33° C | 99% | 1007.9 hPa | 3.05 mm | 0 m/s | 0 W/m² | - |
| 1778042244 | 8.89° C | 99% | 1008 hPa | 0 mm | 0.89 m/s, 321° | 0 W/m² | - |
| 1778041941 | 8.89° C | 99% | 1007.9 hPa | 1.27 mm | 0.45 m/s, 322° | 0 W/m² | - |
| 1778041640 | 8.89° C | 99% | 1007.9 hPa | 3.05 mm | 0.89 m/s, 26° | 0 W/m² | - |
| 1778041338 | 9.44° C | 99% | 1007.9 hPa | 6.1 mm | 1.34 m/s, 22° | 0 W/m² | - |
| 1778041036 | 9.44° C | 99% | 1007.8 hPa | 8.89 mm | 1.34 m/s, 25° | 0 W/m² | - |
| 1778040733 | 9.44° C | 99% | 1008 hPa | 10.67 mm | 1.79 m/s, 349° | 0 W/m² | - |
| 1778040431 | 9.44° C | 99% | 1007.9 hPa | 10.67 mm | 1.79 m/s, 16° | 0 W/m² | - |
| 1778040127 | 9.44° C | 99% | 1007.8 hPa | 4.83 mm | 1.79 m/s, 328° | 0 W/m² | - |
| 1778039824 | 9.44° C | 99% | 1007.7 hPa | 3.05 mm | 0.89 m/s, 352° | 0 W/m² | - |
| 1778039520 | 9.44° C | 99% | 1007.5 hPa | 3.05 mm | 1.79 m/s, 24° | 0 W/m² | - |
| 1778039212 | 9.44° C | 99% | 1007.5 hPa | 0 mm | 2.24 m/s, 345° | 0 W/m² | - |
| 1778038909 | 9.44° C | 99% | 1007.5 hPa | 0 mm | 1.34 m/s, 6° | 0 W/m² | - |
| 1778038607 | 10° C | 99% | 1007.6 hPa | 0 mm | 1.79 m/s, 26° | 0 W/m² | - |
| 1778038303 | 10° C | 99% | 1007.5 hPa | 0 mm | 0 m/s | 0 W/m² | - |
| 1778038001 | 10° C | 99% | 1007.5 hPa | 0 mm | 0 m/s | 0 W/m² | - |
| 1778037697 | 10° C | 99% | 1007.3 hPa | 0 mm | 0.45 m/s, 20° | 0 W/m² | - |
* Rain latest hour (hover to see other rain measurements)
** Current wind speed in m/s (hover to see current wind gust speed)